Weather History for KAXN - October, 2012

Change the Weather History Date:

Saturday, October 20, 2012

  Actual Average (WUND) Record (WUND)
Temperature  
Mean Temperature 44 °F -  
Max Temperature 50 °F - - (-1)
Min Temperature 41 °F - - (-1)
Degree Days  
Heating Degree Days 20    
Moisture  
Dew Point 40 °F    
Average Humidity 89    
Maximum Humidity 100    
Minimum Humidity 74    
Precipitation  
Precipitation 0.00 in - - ()
Sea Level Pressure  
Sea Level Pressure 29.76 in    
Wind  
Wind Speed 4 mph (SSW)    
Max Wind Speed 15 mph    
Max Gust Speed -    
Visibility 8 miles    
Events Fog    
Averages and records for this station are not official NWS values.
T = Trace of Precipitation, MM = Missing Value Source: NWS Daily Summary

Daily Weather History Graph

Daily Weather History Graph

Search for Another Location

Airport or City:

Trip Planner

Search our weather history database for the weather conditions in past years. The results will help you decide how hot, cold, wet, or windy it might be!

Date:

Astronomy

Oct. 20, 2012 Rise Set
Actual Time 7:45 AM CDT 6:25 PM CDT
Civil Twilight 7:15 AM CDT 6:56 PM CDT
Nautical Twilight 6:40 AM CDT 7:30 PM CDT
Astronomical Twilight 6:06 AM CDT 8:05 PM CDT
Moon 1:31 PM CDT (10/20) 11:04 PM CDT (10/20)
Length of Visible Light 11h 40m
Length of Day
10h 40m
Waxing Crescent, 34% of the Moon is Illuminated
Oct 20
Waxing Crescent
Oct 21
First Quarter
Oct 29
Full
Nov 6
Last Quarter
Nov 13
New

Hourly Weather History & Observations

Time (CDT) Temp. Windchill Dew Point Humidity Pressure Visibility Wind Dir Wind Speed Gust Speed Precip Events Conditions
12:53 AM 43.0 °F - 39.9 °F 89% 29.77 in 10.0 mi Calm Calm - N/A   Overcast
1:53 AM 43.0 °F - 41.0 °F 93% 29.77 in 10.0 mi Calm Calm - N/A   Overcast
2:53 AM 43.0 °F 41.3 °F 39.9 °F 89% 29.78 in 10.0 mi West 3.5 mph - N/A   Overcast
3:20 AM 42.8 °F - 41.0 °F 93% 29.75 in 10.0 mi Calm Calm - N/A   Overcast
3:41 AM 42.8 °F 41.1 °F 41.0 °F 93% 29.74 in 1.8 mi SW 3.5 mph - N/A   Overcast
3:48 AM 42.8 °F 41.1 °F 41.0 °F 93% 29.74 in 0.8 mi WSW 3.5 mph - N/A   Mist
3:49 AM 42.1 °F 40.2 °F 41.0 °F 96% 29.78 in 0.8 mi WSW 3.5 mph - N/A   Mist
4:09 AM 42.8 °F 40.1 °F 41.0 °F 93% 29.74 in 1.2 mi WSW 4.6 mph - N/A   Overcast
4:17 AM 42.8 °F 41.1 °F 41.0 °F 93% 29.74 in 0.5 mi West 3.5 mph - N/A Fog Fog
4:53 AM 42.1 °F 40.2 °F 41.0 °F 96% 29.77 in 0.8 mi WSW 3.5 mph - N/A   Mist
5:07 AM 42.8 °F - 41.0 °F 93% 29.74 in 1.5 mi Calm Calm - N/A   Overcast
5:13 AM 41.0 °F - 41.0 °F 100% 29.74 in 3.0 mi Calm Calm - N/A   Overcast
5:53 AM 42.1 °F 40.2 °F 41.0 °F 96% 29.78 in 10.0 mi SW 3.5 mph - N/A   Overcast
6:43 AM 41.0 °F - 39.2 °F 93% 29.74 in 10.0 mi Calm Calm - N/A   Overcast
6:53 AM 41.0 °F 39.0 °F 39.9 °F 96% 29.77 in 8.0 mi SSE 3.5 mph - N/A   Overcast
7:53 AM 41.0 °F 38.0 °F 39.9 °F 96% 29.79 in 10.0 mi South 4.6 mph - N/A   Overcast
8:16 AM 41.0 °F 37.1 °F 39.2 °F 93% 29.76 in 2.5 mi SW 5.8 mph - N/A   Overcast
8:23 AM 41.0 °F 36.4 °F 39.2 °F 93% 29.77 in 4.0 mi SW 6.9 mph - N/A   Overcast
8:38 AM 41.0 °F 39.0 °F 39.2 °F 93% 29.77 in 2.5 mi SSW 3.5 mph - N/A   Overcast
8:48 AM 41.0 °F 38.0 °F 41.0 °F 100% 29.77 in 4.0 mi SSW 4.6 mph - N/A   Overcast
8:53 AM 42.1 °F 38.4 °F 41.0 °F 96% 29.80 in 7.0 mi South 5.8 mph - N/A   Overcast
9:33 AM 42.8 °F 38.0 °F 39.2 °F 87% 29.77 in 10.0 mi South 8.1 mph - N/A   Overcast
9:48 AM 42.8 °F 38.0 °F 39.2 °F 87% 29.77 in 10.0 mi SSW 8.1 mph - N/A   Overcast
9:53 AM 43.0 °F 37.2 °F 39.9 °F 89% 29.80 in 10.0 mi SSW 10.4 mph - N/A   Overcast
10:05 AM 42.8 °F 38.0 °F 39.2 °F 87% 29.77 in 10.0 mi SSW 8.1 mph - N/A   Overcast
10:25 AM 42.8 °F 37.5 °F 39.2 °F 87% 29.77 in 10.0 mi SSW 9.2 mph - N/A   Overcast
10:53 AM 44.1 °F 38.6 °F 39.9 °F 85% 29.79 in 10.0 mi South 10.4 mph - N/A   Overcast
11:53 AM 46.9 °F - 39.9 °F 77% 29.79 in 10.0 mi South 11.5 mph - N/A   Overcast
1:53 PM 48.0 °F - 41.0 °F 77% 29.77 in 10.0 mi South 11.5 mph - N/A   Overcast
2:53 PM 48.9 °F - 41.0 °F 74% 29.75 in 10.0 mi South 11.5 mph - N/A   Overcast
3:53 PM 48.9 °F - 41.0 °F 74% 29.75 in 10.0 mi SSE 11.5 mph - N/A   Overcast
4:53 PM 48.0 °F - 41.0 °F 77% 29.75 in 10.0 mi South 11.5 mph - N/A   Overcast
5:53 PM 48.0 °F - 41.0 °F 77% 29.75 in 10.0 mi SSE 11.5 mph - N/A   Mostly Cloudy
6:22 PM 46.4 °F 41.9 °F 41.0 °F 81% 29.72 in 10.0 mi SSE 9.2 mph - N/A   Scattered Clouds
6:53 PM 46.0 °F 42.5 °F 41.0 °F 83% 29.75 in 10.0 mi SSE 6.9 mph - N/A   Clear
7:53 PM 45.0 °F 40.1 °F 41.0 °F 86% 29.76 in 10.0 mi SE 9.2 mph - N/A   Clear
8:53 PM 45.0 °F 39.7 °F 41.0 °F 86% 29.77 in 10.0 mi SE 10.4 mph - N/A   Clear
9:53 PM 45.0 °F 40.1 °F 41.0 °F 86% 29.77 in 10.0 mi SE 9.2 mph - N/A   Clear
10:53 PM 46.0 °F 39.6 °F 42.1 °F 86% 29.75 in 10.0 mi SSE 15.0 mph - N/A   Clear
11:53 PM 44.1 °F 39.5 °F 41.0 °F 89% 29.78 in 10.0 mi SSE 8.1 mph - N/A   Clear